Location: East Horndon
(51.5667°N, 0.3500°E)
Time: 06:09:57
(UTC+00:00)

Cosmos 407 Rocket - Pass Details

Date: 08 November 2025
Orbit: 740 x 780 km, 74.0° (Epoch: 11 December)

Event Time Altitude Azimuth Distance (km) Brightness Sun altitude
Exits shadow 04:54:46 15° 336° (NNW) 1,947 5.3 -20.3°
Maximum altitude 04:59:04 88° 63° (ENE) 749 3.4 -19.6°
Drops below altitude 10° 05:04:10 10° 156° (SSE) 2,247 6.3 -18.8°
Sets 05:06:31 0° 157° (SSE) 3,168 7.1 -18.5°
